www.pogodaiklimat.ru

Погода и климат >> Архив погоды >> Индия >> Jorhat


ПОГОДА в Jorhat

  • Прогноз погоды в Jorhat
  • Монитор погоды в Jorhat
  • Климат города

АРХИВ ПОГОДЫ в Jorhat

Время (UTC), дата Ветер
(напр.,м/с)
 
Видим.   Явления Облачность Т
(С)
Тd
(С)
f
(%)
Тe
(С)
Тes
(С)
Комфортность P
(гПа)
Po
(гПа)
Тmin
(С)
Tmax
(С)
R
(мм)
R24
(мм)
S
(см)
12 14.10 штиль 0 2000 м мгла 4/3 600 м
[Sc diur, vesp Ac trans]
+25.4 +23.0 87 +34 +34 очень
душно
1008.5 1009.0 +29.5 0.0
03 15.10 Ю 1 4000 м 8/5 600 м
[Cb calv Ac trans]
+26.0 +23.4 86 +35 +38 очень
душно
1012.8 1013.0 +20.4 0.0
06 15.10 СВ 2 4000 м мгла 6/4 600 м
[Sc diur, vesp Ac trans]
+27.8 +23.4 77 +38 +45 очень
душно
1012.2 1012.0
09 15.10 В 2 4000 м 8/5 600 м
[Sc diur, vesp Ac trans]
+26.4 +22.6 80 +35 +37 очень
душно
1010.2 1010.0
12 15.10 В 1 2000 м мгла 6/3 540 м
[Sc Ac trans]
+24.0 +22.2 90 +31 +31 очень
душно
1010.2 1010.0 +28.5
03 16.10 В 1 2000 м мгла {туман} 9/6 600 м
[Sc diur, vesp Ac trans]
+23.8 +22.0 90 +31 +33 очень
душно
1014.7 1015.0 +20.0 0.6
06 16.10 штиль 0 4000 м 6/4 600 м
[Sc diur, vesp Ac trans]
+26.8 +21.4 72 +34 +43 очень
душно
1013.6 1014.0
09 16.10 штиль 0 4000 м 3/3 600 м
[Sc diur, vesp Ac trans]
+29.0 +23.2 71 +39 +44 очень
душно
1009.8 1010.0
12 16.10 штиль 0 2000 м мгла 3/3 600 м
[Sc]
+25.6 +23.6 89 +35 +35 очень
душно
1009.6 1010.0 +29.5
03 17.10 штиль 0 2000 м мгла {туман} 5/3 600 м
[Sc diur, vesp Ac trans]
+23.4 +21.9 91 +32 +38 очень
душно
1013.2 1013.0 +18.7
06 17.10 В 2 4000 м 4/4 600 м
[Sc diur, vesp Ac trans]
+28.4 +21.5 66 +36 +45 очень
душно
1010.8 1011.0
09 17.10 штиль 0 4000 м 3/3 600 м
[Sc diur, vesp]
+29.0 +21.9 66 +37 +42 очень
душно
1007.6 1008.0
12 17.10 штиль 0 2000 м мгла 6/3 600 м
[Sc Ac trans]
+25.2 +22.5 85 +33 +33 очень
душно
1007.8 1008.0 +29.9
03 18.10 СЗ 1 2000 м мгла {туман} 8/5 600 м
[Sc diur, vesp Ac trans]
+25.8 +23.2 86 +35 +37 очень
душно
1012.2 1012.0 +19.9
06 18.10 штиль 0 4000 м мгла 9/4 600 м
[Sc Ac trans]
+25.2 +22.2 83 +33 +38 очень
душно
1010.5 1011.0
09 18.10 штиль 0 4000 м мгла 9/4 600 м
[Sc diur, vesp Ac trans]
+26.4 +21.6 75 +34 +36 очень
душно
1008.1 1008.0
12 18.10 штиль 0 2000 м мгла 9/5 600 м
[Sc diur, vesp Ac trans]
+24.4 +22.6 90 +32 +32 очень
душно
1008.7 1009.0 +27.6
03 19.10 ЮВ 1 2000 м мгла {туман} 9/6 600 м
[Sc Ac trans]
+24.8 +23.0 90 +33 +35 очень
душно
1013.6 1014.0 +21.0
06 19.10 штиль 0 4000 м мгла 8/4 600 м
[Sc diur, vesp Ac trans]
+27.0 +22.3 75 +35 +42 очень
душно
1012.0 1012.0
09 19.10 штиль 0 4000 м мгла 6/4 600 м
[Sc diur, vesp Ac trans]
+27.8 +22.2 72 +36 +40 очень
душно
1010.0 1010.0
12 19.10 штиль 0 2000 м мгла 1/1 600 м
[Sc]
+25.0 +22.9 88 +33 +33 очень
душно
1010.2 1010.0 +28.7
03 20.10 В 1 4000 м мгла {туман} 5/4 600 м
[Sc diur, vesp Ac trans]
+25.4 +21.8 80 +33 +37 очень
душно
1015.4 1015.0 +19.0
06 20.10 В 2 2000 м мгла 8/5 600 м
[Sc diur, vesp Ac trans]
+28.2 +22.9 73 +38 +42 очень
душно
1013.9 1014.0
09 20.10 В 2 4000 м мгла 4/3 600 м
[Sc diur, vesp Ac trans]
+28.4 +21.9 68 +37 +40 очень
душно
1010.5 1011.0
12 20.10 штиль 0 2000 м мгла 1/1 600 м
[Sc]
+25.4 +23.0 87 +34 +34 очень
душно
1010.7 1011.0 +29.6
03 21.10 ЮВ 1 2000 м мгла {туман} 1/1 600 м
[Sc]
+26.2 +22.7 81 +35 +42 очень
душно
1015.5 1016.0 +19.4
06 21.10 С 1 4000 м мгла 4/4 600 м
[Sc diur, vesp Ac trans]
+29.0 +21.9 66 +37 +47 очень
душно
1013.0 1013.0
09 21.10 штиль 0 4000 м мгла 1/1 600 м
[Sc diur, vesp]
+29.4 +22.0 64 +38 +44 очень
душно
1009.9 1010.0

 

Местоположение метеостанции Jorhat (Assam, Индия): широта 26.75 долгота 94.20 высота над уровнем моря 87 м.

В архиве по умолчанию представлена погода в Jorhat за последнюю неделю. Архивные данные за месяц целиком и за предыдущие месяцы, начиная с января 2011 года, Вы можете получить, выбрав интересующий диапазон дат из раскрывающегося списка и нажав кнопку "Ввод!".


*Определитесь, кто Вы:
робот инопланетянин человек

Внимание! Время в таблицах - всемирное. Для получения местного времени необходимо прибавить поправку, которая в Jorhat равна 5.5 ч.

Смотрите также архив погоды в соседних городах и на ближайших метеорологических станциях:

Погода в Golaghat (Assam, Индия) (34 км)
Погода в North Lakhimpur (Assam, Индия) (54 км)
Погода в Itanagar (Arunachal Pradesh, Индия) (69 км)
Погода в Dibrugarh (Assam, Индия) (115 км)
Погода в Kohima (Nagaland, Индия) (125 км)
Погода в Tezpur (Assam, Индия) (142 км)
Погода в Lumding (Assam, Индия) (151 км)
Погода в Hkamti (Мьянма) (171 км)
Погода в Chaparmukh (Assam, Индия) (178 км)
Погода в Mazbat (Assam, Индия) (184 км)

Пояснения к столбцам:

Ветер - указаны скорость ветра в м/с - средняя за 10 мин, порывы в срок и между сроками (в фигурных скобках) и направление, откуда дует ветер: С - северный, СВ - северо-восточный, В - восточный, ЮВ - юго-восточный, Ю - южный, ЮЗ - юго-западный, З - западный, СЗ - северо-западный.
Видимость - горизонтальная дальность видимости в метрах или километрах. При видимости от 1 до 10 км при отсутствии осадков обычно наблюдается дымка, при ухудшении видимости до 1 км и менее - туман. В сухую погоду видимость может ухудшаться дымом, пылью или мглою.
Явления - указаны атмосферные явления, наблюдавшиеся в срок или в последний час перед сроком; фигурными скобками обозначены явления, наблюдавшиеся между сроками (за 1-3 часа до срока); квадратными скобками обозначены град или гололедные отложения с указанием их диаметра в мм.
Облачность - указаны через наклонную черту общая и нижняя облачность в баллах и высота нижней границы облаков в метрах; квадратными скобками обозначены формы облаков: Ci - перистые, Cs - перисто-слоистые, Cc - перисто-кучевые, Ac - высококучевые, As - высокослоистые, Sc - слоисто-кучевые, Ns - слоисто-дождевые, Cu - кучевые, Cb - кучево-дождевые. Подробнее классификацию облаков см. в Атласе облаков (PDF).
T - Температура воздуха - температура, измеренная на высоте 2 м над землей.
Td - Температура точки росы - температура, при понижении до которой содержащийся в воздухе водяной пар достигнет насыщения.
f - Относительная влажность воздуха - влажноcть воздуха, измеренная на высоте 2 м над землей.
Te - Эффективная температура - температура, которую ощущает одетый по сезону человек в тени. Характеристика душности погоды. При расчете учитывается влияние влажности воздуха и скорости ветра на теплоощущения человека.
Tes - Эффективная температура на солнце - температура, которую ощущает человек, с поправкой на солнечный нагрев. Характеристика знойности погоды. Зависит от высоты солнца над горизонтом, облачности и скорости ветра. Ночью, в пасмурную погоду, а также при ветре 12 м/с и более поправка равна нулю.
P - Атмосферное давление - приведенное к уровню моря атмосферное давление.
Po - Атмосферное давление - измеренное на уровне метеостанции атмосферное давление.
Tmin - Минимальная температура - минимум температуры воздуха на высоте 2 м над землей.
Tmax - Максимальная температура - максимум температуры воздуха на высоте 2 м над землей.
R - Количество осадков - Количество выпавших осадков за период времени, мм. При наведении курсора мыши на число - период времени, за который выпало указанное количество осадков.
R24 - Количество осадков - Количество выпавших осадков за 24 часа, мм.
S - Снежный покров - Высота снежного покрова, см. При наведении курсора мыши на число - состояние снежного покрова и степень покрытия местности в баллах.